Regional Weather Roundup
Issued by NWS Newport/Morehead, NC

Current Version | Previous Version | Graphics & Text | Print | Product List | Glossary On
Versions: 1 2 3 4 5 6 7 8 9 10 11 12 13 14 15 16 17 18 19 20 21 22 23 24 25 26 27 28 29 30 31 32 33 34 35 36 37 38 39 40 41 42 43 44 45 46 47 48 49 50
000 ASUS42 KMHX 260013 RWRMHX WEATHER ROUNDUP FOR EASTERN NORTH CAROLINA NATIONAL WEATHER SERVICE NEWPORT/MOREHEAD CITY NC 800 PM EDT SAT MAR 25 2017 NOTE: "FAIR" INDICATES FEW OR NO CLOUDS BELOW 12,000 FEET WITH NO SIGNIFICANT WEATHER AND/OR OBSTRUCTIONS TO VISIBILITY NCZ015>017-031-032-045>047-102-103-260100- NORTH COAST CITY SKY/WX TMP DP RH WIND PRES REMARKS EDENTON CLOUDY 68 53 58 S12 30.23 ELIZABETH CITY PTCLDY 66 51 58 S9 30.23R KITTY HAWK NOT AVBL MANTEO CLOUDY 60 53 76 SW10 30.26R $$ NCZ045>047-081-094-103-104-260100- CENTRAL COAST CITY SKY/WX TMP DP RH WIND PRES REMARKS FRISCO PTCLDY 64 55 72 SW9 30.27S $$ NCZ095-097-098-100-101-260100- SOUTHERN COAST CITY SKY/WX TMP DP RH WIND PRES REMARKS BEAUFORT PTCLDY 63 55 75 S5 30.27S CEDAR ISLAND NOT AVBL JACKSONVILLE CLOUDY 65 56 72 S8 30.25S PINEY ISLAND CLOUDY N/A N/A N/A S8 30.26S WILMINGTON PTCLDY 65 55 70 S6 30.25S $$ NCZ011>013-027>030-043-044-078>080-089-090>093-098-260100- COASTAL PLAIN CITY SKY/WX TMP DP RH WIND PRES REMARKS AHOSKIE N/A 65 51 61 CALM 30.22 CLINTON CLOUDY 67 54 61 S3 30.23R ELIZABETHTOWN CLOUDY 67 53 59 SE7 30.23S GOLDSBORO CLOUDY 69 52 54 S6 30.21R GREENVILLE CLOUDY 68 52 56 S7 30.24R HAVELOCK CLEAR 67 53 61 S10 30.27R KENANSVILLE MOCLDY 66 52 59 CALM 30.24R KINSTON CLOUDY 68 52 56 S7 30.24R NEW BERN CLOUDY 66 54 65 S9 30.26R RICHLANDS PTCLDY 65 54 67 S8 30.25S ROCKY MOUNT CLOUDY 64 52 64 CALM 30.21S WASHINGTON CLOUDY 67 52 57 S6 30.24S WHITEVILLE CLOUDY 66 53 62 S5 30.24R $$ AMZ130-135-150-152-154-156-158-170-250-252-270-ANZ085-086-088-633-658-670-260100- MARINE OBSERVATIONS STATION/POSITION TIME TEMP WIND PRES WAVE SWELL AIR SEA DIR/SP/G HT/PER HT/PER (UTC) (F) (DEG/KT/KT) (MB) (FT/S) (FT/S) CHESAPEAKE LIGHT NOT AVBL 64 E VA BEACH 2350 55 49 210/ 12/ 14 1023.9 2/ 5 2/ 7 DUCK 2336 64 47 190/ 10/ 12 1023.4 2 E DUCK 0000 50 N/A 2/11 OREGON INLET 2336 60 58 200/ 13/ 14 1024.3 13E OREGON INLT 2348 50 N/A 2/ 9 2/ 9 HATTERAS CG 2336 63 58 200/ 7/ 9 1024.7 DIAMOND BUOY 2350 71 77 210/ 16/ 19 1025.1 3/ 5 2/ 7 CAPE LOOKOUT 0000 66 230/ 3/ 4 1025.0 BEAUFORT LAB 2336 61 54 200/ 3/ 4 1024.3 30 SE NEW RVR IN 2308 68 200/ 10/ 12 1025.0 30 SE NEW RVR IN 2343 67 N/A 3/ 8 2/11 27 SE WRIGHTSVLE 2308 65 64 240/ 4/ 6 1024.0 5 SE WRIGHTSVLE 2308 62 59 170/ 6/ 8 1024.4 225 S CAPE HAT 2350 67 73 90/ 8/ 12 1025.8 5/ 8 5/ 8 41 SE CHARLESTON 2350 70 71 140/ 14/ 17 1023.0 4/ 8 3/ 8 $$

USA.gov is the U.S. government's official web portal to all federal, state and local government web resources and services.